EN

Hourly Weather Luka

Today, 26 November, Thursday

Time Temperature Precipitation Wind Pressure Humidity
00:00 +7°C° 0.1 mm 3 mps 749 mmHg 95%
01:00 +5°C° 0.1 mm 3 mps 749 mmHg 93%
02:00 +5°C° 0 mm 3 mps 749 mmHg 91%
03:00 +5°C° 0 mm 3 mps 749 mmHg 92%
04:00 +5°C° 0 mm 3 mps 749 mmHg 92%
05:00 +5°C° 0 mm 3 mps 748 mmHg 92%
06:00 +5°C° 0 mm 4 mps 748 mmHg 90%
07:00 +4°C° 0 mm 4 mps 748 mmHg 87%
08:00 +4°C° 0 mm 4 mps 748 mmHg 85%
09:00 +4°C° 0 mm 4 mps 748 mmHg 81%
10:00 +3°C° 0 mm 4 mps 748 mmHg 77%
11:00 +3°C° 0 mm 4 mps 748 mmHg 73%
12:00 +3°C° 0 mm 4 mps 747 mmHg 73%
13:00 +3°C° 0 mm 4 mps 747 mmHg 72%
14:00 +1°C° 0 mm 4 mps 747 mmHg 72%
15:00 +1°C° 0 mm 4 mps 747 mmHg 75%
16:00 0°C° 0 mm 4 mps 746 mmHg 78%
17:00 0°C° 0 mm 4 mps 746 mmHg 81%
18:00 -1°C° 0 mm 4 mps 745 mmHg 83%
19:00 -1°C° 0 mm 4 mps 745 mmHg 85%
20:00 -1°C° 0 mm 4 mps 745 mmHg 87%
21:00 0°C° 0 mm 3 mps 745 mmHg 87%
22:00 0°C° 0 mm 3 mps 744 mmHg 87%
23:00 0°C° 0 mm 3 mps 744 mmHg 87%

Tomorrow, 27 November, Friday

Time Temperature Precipitation Wind Pressure Humidity
00:00 0°C° 0 mm 4 mps 743 mmHg 87%
01:00 0°C° 0 mm 4 mps 743 mmHg 87%
02:00 0°C° 0 mm 4 mps 743 mmHg 87%
03:00 0°C° 0.5 mm 4 mps 742 mmHg 89%
04:00 0°C° 0.5 mm 4 mps 742 mmHg 91%
05:00 0°C° 0.5 mm 4 mps 741 mmHg 93%
06:00 0°C° 0.8 mm 4 mps 741 mmHg 93%
07:00 +1°C° 0.8 mm 4 mps 741 mmHg 94%
08:00 +1°C° 0.8 mm 4 mps 741 mmHg 94%
09:00 +1°C° 0.6 mm 4 mps 741 mmHg 94%
10:00 +3°C° 0.6 mm 4 mps 741 mmHg 95%
11:00 +3°C° 0.6 mm 4 mps 741 mmHg 95%
12:00 +1°C° 0.4 mm 4 mps 741 mmHg 90%
13:00 +1°C° 0.4 mm 5 mps 741 mmHg 85%
14:00 +1°C° 0.4 mm 6 mps 742 mmHg 81%
15:00 0°C° 0 mm 5 mps 742 mmHg 83%
16:00 -1°C° 0 mm 4 mps 742 mmHg 86%
17:00 -1°C° 0 mm 4 mps 742 mmHg 89%
18:00 0°C° 0.1 mm 3 mps 743 mmHg 89%
19:00 -1°C° 0.1 mm 3 mps 743 mmHg 90%
20:00 -1°C° 0.1 mm 3 mps 744 mmHg 91%
21:00 -1°C° 0 mm 3 mps 744 mmHg 92%
22:00 -1°C° 0 mm 3 mps 745 mmHg 93%
23:00 -1°C° 0 mm 3 mps 745 mmHg 93%

Day after tomorrow, 28 November, Saturday

Time Temperature Precipitation Wind Pressure Humidity
00:00 -2°C° 0 mm 2 mps 746 mmHg 93%
01:00 -2°C° 0 mm 2 mps 746 mmHg 93%
02:00 -2°C° 0 mm 2 mps 746 mmHg 93%
03:00 -2°C° 0.1 mm 3 mps 747 mmHg 94%
04:00 -2°C° 0.1 mm 3 mps 747 mmHg 94%
05:00 -2°C° 0.1 mm 3 mps 747 mmHg 94%
06:00 -2°C° 0.4 mm 3 mps 748 mmHg 95%
07:00 -1°C° 0.4 mm 3 mps 748 mmHg 96%
08:00 -1°C° 0.4 mm 3 mps 748 mmHg 96%
09:00 0°C° 0.2 mm 3 mps 749 mmHg 96%
10:00 0°C° 0.2 mm 3 mps 749 mmHg 97%
11:00 0°C° 0.2 mm 3 mps 749 mmHg 97%
12:00 0°C° 0.2 mm 3 mps 749 mmHg 97%
13:00 +1°C° 0.2 mm 3 mps 750 mmHg 97%
14:00 +1°C° 0.2 mm 3 mps 750 mmHg 97%
15:00 +1°C° 0.1 mm 3 mps 750 mmHg 97%
16:00 +1°C° 0.1 mm 3 mps 750 mmHg 97%
17:00 0°C° 0.1 mm 3 mps 750 mmHg 97%
18:00 0°C° 0.2 mm 3 mps 751 mmHg 97%
19:00 0°C° 0.2 mm 3 mps 751 mmHg 97%
20:00 0°C° 0.2 mm 3 mps 751 mmHg 97%
21:00 0°C° 0.2 mm 3 mps 751 mmHg 97%
22:00 0°C° 0.2 mm 3 mps 752 mmHg 97%
23:00 0°C° 0.2 mm 3 mps 752 mmHg 97%

29 November, Sunday

Time Temperature Precipitation Wind Pressure Humidity
00:00 0°C° 0.1 mm 3 mps 752 mmHg 97%
01:00 -1°C° 0.1 mm 3 mps 752 mmHg 97%
02:00 -1°C° 0.1 mm 3 mps 752 mmHg 97%
03:00 -1°C° 0.1 mm 3 mps 752 mmHg 96%
04:00 -1°C° 0.1 mm 3 mps 752 mmHg 95%
05:00 -1°C° 0.1 mm 2 mps 752 mmHg 95%
06:00 -2°C° 0 mm 2 mps 752 mmHg 95%
07:00 -2°C° 0 mm 2 mps 752 mmHg 95%
08:00 -2°C° 0 mm 2 mps 752 mmHg 95%
09:00 -2°C° 0 mm 3 mps 753 mmHg 93%
10:00 -1°C° 0 mm 3 mps 753 mmHg 91%
11:00 -1°C° 0 mm 3 mps 753 mmHg 89%
12:00 -1°C° 0 mm 3 mps 752 mmHg 86%
13:00 -1°C° 0 mm 3 mps 752 mmHg 82%
14:00 0°C° 0 mm 3 mps 751 mmHg 79%
15:00 -2°C° 0 mm 4 mps 751 mmHg 82%
16:00 -2°C° 0 mm 4 mps 750 mmHg 85%
17:00 -2°C° 0 mm 5 mps 750 mmHg 87%
18:00 -2°C° 0.4 mm 5 mps 750 mmHg 90%
19:00 -2°C° 0.4 mm 5 mps 749 mmHg 93%
20:00 -3°C° 0.4 mm 6 mps 749 mmHg 97%
21:00 -2°C° 0.6 mm 6 mps 748 mmHg 97%
22:00 -1°C° 0.6 mm 5 mps 748 mmHg 97%
23:00 -1°C° 0.6 mm 5 mps 747 mmHg 97%

30 November, Monday

Time Temperature Precipitation Wind Pressure Humidity
00:00 0°C° 0.9 mm 4 mps 747 mmHg 97%
01:00 0°C° 0.9 mm 4 mps 747 mmHg 98%
02:00 0°C° 0.9 mm 4 mps 746 mmHg 98%
03:00 +1°C° 1 mm 3 mps 746 mmHg 98%
04:00 +1°C° 1 mm 3 mps 746 mmHg 97%
05:00 0°C° 1 mm 3 mps 746 mmHg 97%
06:00 +1°C° 0.1 mm 2 mps 746 mmHg 96%
07:00 -1°C° 0.1 mm 2 mps 747 mmHg 94%
08:00 -1°C° 0.1 mm 2 mps 747 mmHg 92%
09:00 -1°C° 0.1 mm 2 mps 747 mmHg 92%
10:00 +1°C° 0.1 mm 1 mps 748 mmHg 92%
11:00 +1°C° 0.1 mm 1 mps 748 mmHg 92%
12:00 -1°C° 0.1 mm 2 mps 748 mmHg 92%
13:00 -1°C° 0.1 mm 2 mps 749 mmHg 93%
14:00 -1°C° 0.1 mm 3 mps 749 mmHg 93%
15:00 -1°C° 0.2 mm 3 mps 750 mmHg 93%
16:00 -2°C° 0.2 mm 4 mps 751 mmHg 94%
17:00 -3°C° 0.2 mm 4 mps 751 mmHg 94%
18:00 -3°C° 0.1 mm 4 mps 752 mmHg 93%
19:00 -3°C° 0.1 mm 4 mps 752 mmHg 93%
20:00 -3°C° 0.1 mm 4 mps 753 mmHg 92%
21:00 -4°C° 0 mm 4 mps 753 mmHg 91%
22:00 -4°C° 0 mm 4 mps 754 mmHg 90%
23:00 -4°C° 0 mm 4 mps 754 mmHg 90%

1 December, Tuesday

Time Temperature Precipitation Wind Pressure Humidity
00:00 -5°C° 0 mm 3 mps 755 mmHg 90%
01:00 -5°C° 0 mm 3 mps 755 mmHg 91%
02:00 -5°C° 0 mm 3 mps 755 mmHg 92%
03:00 -5°C° 0 mm 3 mps 755 mmHg 91%
04:00 -4°C° 0 mm 4 mps 755 mmHg 89%
05:00 -3°C° 0 mm 4 mps 755 mmHg 88%
06:00 -3°C° 0 mm 4 mps 755 mmHg 88%
07:00 -4°C° 0 mm 4 mps 755 mmHg 88%
08:00 -4°C° 0 mm 4 mps 755 mmHg 88%
09:00 -4°C° 0 mm 4 mps 756 mmHg 88%
10:00 -4°C° 0 mm 4 mps 756 mmHg 88%
11:00 -4°C° 0 mm 4 mps 756 mmHg 89%
12:00 -3°C° 0 mm 4 mps 756 mmHg 88%
13:00 -2°C° 0 mm 3 mps 756 mmHg 88%
14:00 -2°C° 0 mm 3 mps 756 mmHg 87%
15:00 -2°C° 0 mm 3 mps 756 mmHg 87%
16:00 -4°C° 0 mm 3 mps 756 mmHg 88%
17:00 -4°C° 0 mm 3 mps 755 mmHg 88%
18:00 -4°C° 0 mm 3 mps 756 mmHg 89%
19:00 -5°C° 0 mm 3 mps 756 mmHg 90%
20:00 -4°C° 0 mm 2 mps 756 mmHg 91%
21:00 -5°C° 0 mm 2 mps 756 mmHg 92%
22:00 -5°C° 0 mm 2 mps 756 mmHg 93%
23:00 -5°C° 0 mm 2 mps 756 mmHg 93%
Show more